STARLINK-36570, 67640

Orbit data source: Space-Track

STARLINK-36570, 67640 is a payload satellite owned by SpaceX/Seattle (US) in LEO that was launched on Fri, 30 Jan 2026 UTC via an FALCON 9 launch vehicle from the Air Force Eastern Test Range (AFETR). Payload-class satellites include a variety of spacecraft equipped with specific instruments for various scientific and technological missions. These include communications satellites like Starlink; space stations such as the ISS; scientific satellites like the Hubble; Earth observation satellites from companies like Planet Labs, Umbra, and HawkEye 360; GPS; miniature CubeSats for education and research; and military/defense satellites.

Loading next visibility...
Identifier
67640, 2026-020Z
Orbit
LEO
Country
Flag of USUS
Related business
Manufacturer
SpaceX/Seattle
Mission
Operational spacecraft
Bus & Motor
STARLINK V2MO, Unknown motor
Mass
575 kg wet, ~530 kg dry
Launch date (UTC)
2026-01-30 (2 months ago)
Launch vehicle
FALCON 9
Launch site
Air Force Eastern Test Range (AFETR)
Object type
Payload
Rocket body
Debris
Shape & HBR
Unknown shape, 17.7 m
Radar Cross Section
RCS unknown

Expand to show TLE details & history
Last TLE update: 6 hours ago

TLE from 6 hours ago
0 STARLINK-36570
1 67640U 26020Z   26104.83288088  .00008595  00000-0  32152-3 0  9994
2 67640  43.0003 295.4472 0001415 268.5205  91.5484 15.27578618 11640
Epoch: 2026-04-14T19:59Z
TLE epoch observation values (Epoch: 2026-04-14T19:59:20.908Z)
Latitude
-0.00004°
Longitude
152.60658°
Altitude
482.855 km
Speed
7.626 km/s
True Right ascension
19h 41m 47s
True Declination
0° 00' 00"
Sunlit
Object was in daylight at epoch
Visualization orbit readout
Latitude
Unknown
Longitude
Unknown
Altitude
Unknown
Speed
Unknown
Apparent Right ascension
Unknown
Apparent Declination
Unknown
Sunlit
N/A
Visualization observer readout
Local Sidereal Time
08:06:47
Azimuth
Unknown
Elevation
Unknown
Doppler factor
Unknown
Orbital elements
Apogee altitude
485.969 km
Perigee altitude
484.027 km
Semi-major axis
6,863.135 km
Eccentricity
0.00014
Inclination
43.0003°
RAAN
295.4472°
Arg. of periapsis
268.5205°
True anomaly
91.56461°
Mean anomaly
91.5484°
Eccentric anomaly
91.5565°
Mean motion
3.81733 °/min
Orbital period
94.31 mins
BSTAR
0.00032152
Loading maneuver chart data...
Computing Atmospheric mass density...
Loading historical data...
Loading historical data...
Loading historical data...
Loading historical data...
Loading historical data...
Loading historical data...
Loading historical data...

Documentation

Showing up to 5 results
|